UITMSAT-1

Last updated on Sat Nov 21 2020 06:02:56 GMT+0000 (Coordinated Universal Time)

1 43589U 98067PD 20325.00934518 .09147399 12394-4 58853-3 0 9998 2 43589 51.6128 191.6935 0007320 255.9940 104.0273 16.40872661130679

Satellite not in orbit